Time,TemperatureF,DewpointF,PressureIn,WindDirection,WindDirectionDegrees,WindSpeedMPH,WindSpeedGustMPH,Humidity,HourlyPrecipIn,Conditions,Clouds,dailyrainin,SoftwareType,DateUTC
2013-01-11 00:03:00,40.0,33.0,30.52,NNE,25,1.0,3.0,75,0.00,,,0.00,,2013-01-11 05:03:00,
2013-01-11 00:13:00,40.0,33.0,30.52,NNE,25,1.0,3.0,75,0.00,,,0.00,,2013-01-11 05:13:00,
2013-01-11 00:23:00,40.0,32.0,30.52,NE,46,3.0,4.0,73,0.00,,,0.00,,2013-01-11 05:23:00,
2013-01-11 00:33:00,40.0,32.0,30.52,NE,46,3.0,4.0,73,0.00,,,0.00,,2013-01-11 05:33:00,
2013-01-11 00:43:00,40.0,32.0,30.52,NE,46,3.0,4.0,73,0.00,,,0.00,,2013-01-11 05:43:00,
2013-01-11 00:53:00,40.0,32.0,30.51,NNE,23,3.0,4.0,73,0.00,,,0.00,,2013-01-11 05:53:00,
2013-01-11 01:03:00,40.0,32.0,30.51,NNE,23,3.0,4.0,73,0.00,,,0.00,,2013-01-11 06:03:00,
2013-01-11 01:12:00,40.0,32.0,30.51,NNE,23,3.0,4.0,73,0.00,,,0.00,,2013-01-11 06:12:00,
2013-01-11 01:22:00,40.0,32.0,30.50,NNE,26,1.0,5.0,72,0.00,,,0.00,,2013-01-11 06:22:00,
2013-01-11 01:32:00,40.0,32.0,30.50,NNE,26,1.0,5.0,72,0.00,,,0.00,,2013-01-11 06:32:00,
2013-01-11 01:42:00,40.0,32.0,30.50,NNE,26,1.0,5.0,72,0.00,,,0.00,,2013-01-11 06:42:00,
2013-01-11 01:52:00,40.0,33.0,30.50,WNW,301,0.0,4.0,75,0.00,,,0.00,,2013-01-11 06:52:00,
2013-01-11 02:02:00,40.0,33.0,30.50,WNW,301,0.0,4.0,75,0.00,,,0.00,,2013-01-11 07:02:00,
2013-01-11 02:12:00,40.0,33.0,30.50,WNW,301,0.0,4.0,75,0.00,,,0.00,,2013-01-11 07:12:00,
2013-01-11 02:22:00,40.0,33.0,30.49,NNE,17,0.0,3.0,76,0.00,,,0.00,,2013-01-11 07:22:00,
2013-01-11 02:32:00,40.0,33.0,30.49,NNE,17,0.0,3.0,76,0.00,,,0.00,,2013-01-11 07:32:00,
2013-01-11 02:42:00,39.0,33.0,30.50,North,5,0.0,2.0,78,0.00,,,0.00,,2013-01-11 07:42:00,
2013-01-11 02:52:00,39.0,33.0,30.50,North,5,0.0,2.0,78,0.00,,,0.00,,2013-01-11 07:52:00,
2013-01-11 03:02:00,39.0,33.0,30.50,North,5,0.0,2.0,78,0.00,,,0.00,,2013-01-11 08:02:00,
2013-01-11 03:12:00,38.0,33.0,30.49,North,5,0.0,0.0,81,0.00,,,0.00,,2013-01-11 08:12:00,
2013-01-11 03:22:00,38.0,33.0,30.49,North,5,0.0,0.0,81,0.00,,,0.00,,2013-01-11 08:22:00,
2013-01-11 03:32:00,38.0,33.0,30.49,North,5,0.0,0.0,81,0.00,,,0.00,,2013-01-11 08:32:00,
2013-01-11 03:42:00,38.0,33.0,30.49,North,5,0.0,0.0,81,0.00,,,0.00,,2013-01-11 08:42:00,
2013-01-11 03:53:00,38.0,32.0,30.48,WNW,283,0.0,0.0,78,0.00,,,0.00,,2013-01-11 08:53:00,
2013-01-11 04:02:00,38.0,32.0,30.48,WNW,283,0.0,0.0,78,0.00,,,0.00,,2013-01-11 09:02:00,
2013-01-11 04:12:00,38.0,32.0,30.48,WNW,283,0.0,0.0,78,0.00,,,0.00,,2013-01-11 09:12:00,
2013-01-11 04:23:00,38.0,33.0,30.46,NE,44,3.0,3.0,83,0.00,,,0.00,,2013-01-11 09:23:00,
2013-01-11 04:32:00,38.0,33.0,30.46,NE,44,3.0,3.0,83,0.00,,,0.00,,2013-01-11 09:32:00,
2013-01-11 04:42:00,38.0,33.0,30.46,NE,44,3.0,3.0,83,0.00,,,0.00,,2013-01-11 09:42:00,
2013-01-11 04:52:00,38.0,34.0,30.47,NE,39,2.0,5.0,85,0.00,,,0.00,,2013-01-11 09:52:00,
2013-01-11 05:02:00,38.0,34.0,30.47,NE,39,2.0,5.0,85,0.00,,,0.00,,2013-01-11 10:02:00,
2013-01-11 05:12:00,38.0,34.0,30.47,NE,39,2.0,5.0,85,0.00,,,0.00,,2013-01-11 10:12:00,
2013-01-11 05:22:00,37.0,34.0,30.46,NNE,25,2.0,4.0,87,0.00,,,0.00,,2013-01-11 10:22:00,
2013-01-11 05:32:00,37.0,34.0,30.46,NNE,25,2.0,4.0,87,0.00,,,0.00,,2013-01-11 10:32:00,
2013-01-11 05:43:00,37.0,34.0,30.46,NNE,25,2.0,4.0,87,0.00,,,0.00,,2013-01-11 10:43:00,
2013-01-11 05:53:00,37.0,34.0,30.45,NNE,13,0.0,4.0,87,0.00,,,0.00,,2013-01-11 10:53:00,
2013-01-11 06:03:00,37.0,34.0,30.45,NNE,13,0.0,4.0,87,0.00,,,0.00,,2013-01-11 11:03:00,
2013-01-11 06:12:00,37.0,34.0,30.45,NNE,13,0.0,4.0,87,0.00,,,0.00,,2013-01-11 11:12:00,
2013-01-11 06:22:00,38.0,35.0,30.45,North,3,1.0,4.0,88,0.00,,,0.00,,2013-01-11 11:22:00,
2013-01-11 06:33:00,38.0,35.0,30.45,North,3,1.0,4.0,88,0.00,,,0.00,,2013-01-11 11:33:00,
2013-01-11 06:43:00,38.0,35.0,30.45,North,3,1.0,4.0,88,0.00,,,0.00,,2013-01-11 11:43:00,
2013-01-11 06:53:00,38.0,35.0,30.45,NNE,20,0.0,3.0,90,0.00,,,0.00,,2013-01-11 11:53:00,
2013-01-11 07:03:00,38.0,35.0,30.45,NNE,20,0.0,3.0,90,0.00,,,0.00,,2013-01-11 12:03:00,
2013-01-11 07:12:00,38.0,35.0,30.45,NNE,20,0.0,3.0,90,0.00,,,0.00,,2013-01-11 12:12:00,
2013-01-11 07:22:00,39.0,36.0,30.47,North,351,1.0,2.0,90,0.00,,,0.00,,2013-01-11 12:22:00,
2013-01-11 07:33:00,39.0,36.0,30.47,North,351,1.0,2.0,90,0.00,,,0.00,,2013-01-11 12:33:00,
2013-01-11 07:43:00,39.0,36.0,30.47,North,351,1.0,2.0,90,0.00,,,0.00,,2013-01-11 12:43:00,
2013-01-11 07:53:00,39.0,37.0,30.46,NNE,22,1.0,3.0,91,0.00,,,0.00,,2013-01-11 12:53:00,
2013-01-11 08:03:00,39.0,37.0,30.46,NNE,22,1.0,3.0,91,0.00,,,0.00,,2013-01-11 13:03:00,
2013-01-11 08:13:00,39.0,37.0,30.46,NNE,22,1.0,3.0,91,0.00,,,0.00,,2013-01-11 13:13:00,
2013-01-11 08:22:00,42.0,40.0,30.44,ENE,60,0.0,4.0,92,0.00,,,0.00,,2013-01-11 13:22:00,
2013-01-11 08:33:00,42.0,40.0,30.44,ENE,60,0.0,4.0,92,0.00,,,0.00,,2013-01-11 13:33:00,
2013-01-11 08:43:00,42.0,40.0,30.44,ENE,60,0.0,4.0,92,0.00,,,0.00,,2013-01-11 13:43:00,
2013-01-11 08:53:00,43.0,41.0,30.43,ENE,78,2.0,4.0,92,0.00,,,0.00,,2013-01-11 13:53:00,
2013-01-11 09:03:00,43.0,41.0,30.43,ENE,78,2.0,4.0,92,0.00,,,0.00,,2013-01-11 14:03:00,
2013-01-11 09:12:00,43.0,41.0,30.43,ENE,78,2.0,4.0,92,0.00,,,0.00,,2013-01-11 14:12:00,
2013-01-11 09:23:00,45.0,42.0,30.43,NE,40,1.0,5.0,89,0.00,,,0.00,,2013-01-11 14:23:00,
2013-01-11 09:33:00,45.0,42.0,30.43,NE,40,1.0,5.0,89,0.00,,,0.00,,2013-01-11 14:33:00,
2013-01-11 09:43:00,45.0,42.0,30.43,NE,40,1.0,5.0,89,0.00,,,0.00,,2013-01-11 14:43:00,
2013-01-11 09:53:00,45.0,42.0,30.43,NE,39,0.0,4.0,88,0.00,,,0.00,,2013-01-11 14:53:00,
2013-01-11 10:03:00,45.0,42.0,30.43,NE,39,0.0,4.0,88,0.00,,,0.00,,2013-01-11 15:03:00,
2013-01-11 10:13:00,46.0,42.0,30.41,North,5,2.0,8.0,85,0.00,,,0.00,,2013-01-11 15:13:00,
2013-01-11 10:23:00,46.0,42.0,30.41,North,5,2.0,8.0,85,0.00,,,0.00,,2013-01-11 15:23:00,
2013-01-11 10:33:00,46.0,42.0,30.41,North,5,2.0,8.0,85,0.00,,,0.00,,2013-01-11 15:33:00,
2013-01-11 10:43:00,46.0,42.0,30.41,North,5,2.0,8.0,85,0.00,,,0.00,,2013-01-11 15:43:00,
2013-01-11 10:53:00,46.0,42.0,30.40,ENE,78,3.0,12.0,86,0.00,,,0.00,,2013-01-11 15:53:00,
2013-01-11 11:03:00,46.0,42.0,30.40,ENE,78,3.0,12.0,86,0.00,,,0.00,,2013-01-11 16:03:00,
2013-01-11 11:13:00,45.0,42.0,30.38,ENE,69,6.0,9.0,88,0.00,,,0.00,,2013-01-11 16:13:00,
2013-01-11 11:23:00,45.0,42.0,30.38,ENE,69,6.0,9.0,88,0.00,,,0.00,,2013-01-11 16:23:00,
2013-01-11 11:33:00,45.0,42.0,30.38,ENE,69,6.0,9.0,88,0.00,,,0.00,,2013-01-11 16:33:00,
2013-01-11 11:43:00,45.0,42.0,30.38,ENE,69,6.0,9.0,88,0.00,,,0.00,,2013-01-11 16:43:00,
2013-01-11 11:53:00,45.0,42.0,30.36,NE,46,2.0,9.0,88,0.00,,,0.00,,2013-01-11 16:53:00,
2013-01-11 12:03:00,45.0,42.0,30.36,NE,46,2.0,9.0,88,0.00,,,0.00,,2013-01-11 17:03:00,
2013-01-11 12:12:00,45.0,42.0,30.36,NE,46,2.0,9.0,88,0.00,,,0.00,,2013-01-11 17:12:00,
2013-01-11 12:22:00,46.0,43.0,30.35,ENE,71,2.0,7.0,88,0.00,,,0.00,,2013-01-11 17:22:00,
2013-01-11 12:33:00,46.0,43.0,30.35,ENE,71,2.0,7.0,88,0.00,,,0.00,,2013-01-11 17:33:00,
2013-01-11 12:43:00,46.0,43.0,30.35,ENE,71,2.0,7.0,88,0.00,,,0.00,,2013-01-11 17:43:00,
2013-01-11 12:53:00,46.0,43.0,30.33,East,85,6.0,8.0,89,0.00,,,0.00,,2013-01-11 17:53:00,
2013-01-11 13:04:00,46.0,43.0,30.33,East,85,6.0,8.0,89,0.00,,,0.00,,2013-01-11 18:04:00,
2013-01-11 13:13:00,46.0,43.0,30.33,East,85,6.0,8.0,89,0.00,,,0.00,,2013-01-11 18:13:00,
2013-01-11 13:23:00,46.0,43.0,30.31,East,87,2.0,7.0,90,0.00,,,0.00,,2013-01-11 18:23:00,
2013-01-11 13:33:00,46.0,43.0,30.31,East,87,2.0,7.0,90,0.00,,,0.00,,2013-01-11 18:33:00,
2013-01-11 13:43:00,46.0,43.0,30.31,East,87,2.0,7.0,90,0.00,,,0.00,,2013-01-11 18:43:00,
2013-01-11 13:53:00,46.0,44.0,30.31,SE,128,2.0,5.0,92,0.00,,,0.00,,2013-01-11 18:53:00,
2013-01-11 14:03:00,46.0,44.0,30.31,SE,128,2.0,5.0,92,0.00,,,0.00,,2013-01-11 19:03:00,
2013-01-11 14:13:00,46.0,44.0,30.31,SE,128,2.0,5.0,92,0.00,,,0.00,,2013-01-11 19:13:00,
2013-01-11 14:22:00,46.0,44.0,30.29,ESE,105,8.0,11.0,92,0.00,,,0.00,,2013-01-11 19:22:00,
2013-01-11 14:33:00,46.0,44.0,30.29,ESE,105,8.0,11.0,92,0.00,,,0.00,,2013-01-11 19:33:00,
2013-01-11 14:43:00,46.0,44.0,30.29,ESE,105,8.0,11.0,92,0.00,,,0.00,,2013-01-11 19:43:00,
2013-01-11 14:54:00,47.0,45.0,30.28,ESE,114,4.0,12.0,93,0.01,,,0.01,,2013-01-11 19:54:00,
2013-01-11 15:03:00,47.0,45.0,30.28,ESE,114,4.0,12.0,93,0.01,,,0.01,,2013-01-11 20:03:00,
2013-01-11 15:13:00,47.0,45.0,30.28,ESE,114,4.0,12.0,93,0.01,,,0.01,,2013-01-11 20:13:00,
2013-01-11 15:22:00,47.0,45.0,30.26,East,80,3.0,9.0,93,0.01,,,0.01,,2013-01-11 20:22:00,
2013-01-11 15:33:00,47.0,45.0,30.26,East,80,3.0,9.0,93,0.01,,,0.01,,2013-01-11 20:33:00,
2013-01-11 15:43:00,47.0,45.0,30.26,East,80,3.0,9.0,93,0.01,,,0.01,,2013-01-11 20:43:00,
2013-01-11 15:53:00,47.0,45.0,30.24,ENE,78,6.0,14.0,94,0.01,,,0.02,,2013-01-11 20:53:00,
2013-01-11 16:03:00,47.0,45.0,30.24,ENE,78,6.0,14.0,94,0.01,,,0.02,,2013-01-11 21:03:00,
2013-01-11 16:13:00,47.0,45.0,30.24,ENE,78,6.0,14.0,94,0.01,,,0.02,,2013-01-11 21:13:00,
2013-01-11 16:23:00,47.0,46.0,30.23,SE,131,4.0,12.0,95,0.01,,,0.02,,2013-01-11 21:23:00,
2013-01-11 16:33:00,47.0,46.0,30.23,SE,131,4.0,12.0,95,0.01,,,0.02,,2013-01-11 21:33:00,
2013-01-11 16:43:00,47.0,46.0,30.23,SE,131,4.0,12.0,95,0.01,,,0.02,,2013-01-11 21:43:00,
2013-01-11 16:53:00,47.0,46.0,30.23,East,99,5.0,12.0,95,0.00,,,0.02,,2013-01-11 21:53:00,
2013-01-11 17:03:00,47.0,46.0,30.23,East,99,5.0,12.0,95,0.00,,,0.02,,2013-01-11 22:03:00,
2013-01-11 17:13:00,47.0,46.0,30.23,East,99,5.0,12.0,95,0.00,,,0.02,,2013-01-11 22:13:00,
2013-01-11 17:23:00,47.0,46.0,30.22,ESE,106,6.0,10.0,95,0.00,,,0.02,,2013-01-11 22:23:00,
2013-01-11 17:33:00,47.0,46.0,30.22,ESE,106,6.0,10.0,95,0.00,,,0.02,,2013-01-11 22:33:00,
2013-01-11 17:42:00,47.0,46.0,30.22,ESE,106,6.0,10.0,95,0.00,,,0.02,,2013-01-11 22:42:00,
2013-01-11 17:53:00,47.0,46.0,30.20,ESE,104,6.0,7.0,96,0.04,,,0.06,,2013-01-11 22:53:00,
2013-01-11 18:02:00,47.0,46.0,30.20,ESE,104,6.0,7.0,96,0.04,,,0.06,,2013-01-11 23:02:00,
2013-01-11 18:13:00,47.0,46.0,30.20,ESE,104,6.0,7.0,96,0.04,,,0.06,,2013-01-11 23:13:00,
2013-01-11 18:23:00,47.0,46.0,30.19,ESE,122,4.0,13.0,96,0.06,,,0.08,,2013-01-11 23:23:00,
2013-01-11 18:32:00,47.0,46.0,30.19,ESE,122,4.0,13.0,96,0.06,,,0.08,,2013-01-11 23:32:00,
2013-01-11 18:43:00,47.0,46.0,30.19,ESE,122,4.0,13.0,96,0.06,,,0.08,,2013-01-11 23:43:00,
2013-01-11 18:54:00,47.0,46.0,30.17,South,170,5.0,13.0,96,0.02,,,0.08,,2013-01-11 23:54:00,
2013-01-11 19:02:00,47.0,46.0,30.17,South,170,5.0,13.0,96,0.02,,,0.08,,2013-01-12 00:02:00,
2013-01-11 19:12:00,47.0,46.0,30.17,South,170,5.0,13.0,96,0.02,,,0.08,,2013-01-12 00:12:00,
2013-01-11 19:23:00,48.0,47.0,30.15,ESE,122,15.0,16.0,97,0.01,,,0.09,,2013-01-12 00:23:00,
2013-01-11 19:33:00,48.0,47.0,30.15,ESE,122,15.0,16.0,97,0.01,,,0.09,,2013-01-12 00:33:00,
2013-01-11 19:43:00,48.0,47.0,30.15,ESE,122,15.0,16.0,97,0.01,,,0.09,,2013-01-12 00:43:00,
2013-01-11 19:53:00,48.0,47.0,30.13,SE,124,10.0,16.0,97,0.01,,,0.09,,2013-01-12 00:53:00,
2013-01-11 20:02:00,48.0,47.0,30.13,SE,124,10.0,16.0,97,0.01,,,0.09,,2013-01-12 01:02:00,
2013-01-11 20:12:00,48.0,47.0,30.13,SE,124,10.0,16.0,97,0.01,,,0.09,,2013-01-12 01:12:00,
2013-01-11 20:22:00,49.0,48.0,30.11,SE,132,8.0,17.0,97,0.00,,,0.09,,2013-01-12 01:22:00,
2013-01-11 20:33:00,49.0,48.0,30.11,SE,132,8.0,17.0,97,0.00,,,0.09,,2013-01-12 01:33:00,
2013-01-11 20:43:00,49.0,48.0,30.11,SE,132,8.0,17.0,97,0.00,,,0.09,,2013-01-12 01:43:00,
2013-01-11 20:53:00,49.0,48.0,30.09,ESE,115,13.0,22.0,97,0.00,,,0.09,,2013-01-12 01:53:00,
2013-01-11 21:01:00,50.0,49.0,30.07,SE,131,10.0,21.0,97,0.00,,,0.09,,2013-01-12 02:01:00,
2013-01-11 21:02:00,49.0,48.0,30.09,ESE,115,13.0,22.0,97,0.00,,,0.09,,2013-01-12 02:02:00,
2013-01-11 21:12:00,49.0,48.0,30.09,ESE,115,13.0,22.0,97,0.00,,,0.09,,2013-01-12 02:12:00,
2013-01-11 21:22:00,50.0,49.0,30.07,SE,131,10.0,21.0,97,0.00,,,0.09,,2013-01-12 02:22:00,
2013-01-11 21:33:00,50.0,49.0,30.07,SE,131,10.0,21.0,97,0.00,,,0.09,,2013-01-12 02:33:00,
2013-01-11 21:43:00,50.0,49.0,30.07,SE,131,10.0,21.0,97,0.00,,,0.09,,2013-01-12 02:43:00,
2013-01-11 21:53:00,50.0,49.0,30.07,SE,131,10.0,21.0,97,0.00,,,0.09,,2013-01-12 02:53:00,
2013-01-11 22:22:00,53.0,52.0,30.11,WSW,256,4.0,19.0,98,0.05,,,0.14,,2013-01-12 03:22:00,
2013-01-11 22:33:00,53.0,52.0,30.11,WSW,256,4.0,19.0,98,0.05,,,0.14,,2013-01-12 03:33:00,
2013-01-11 22:43:00,53.0,52.0,30.11,WSW,256,4.0,19.0,98,0.05,,,0.14,,2013-01-12 03:43:00,
2013-01-11 22:53:00,52.0,51.0,30.10,West,278,4.0,12.0,97,0.03,,,0.14,,2013-01-12 03:53:00,
2013-01-11 23:02:00,52.0,51.0,30.10,West,278,4.0,12.0,97,0.03,,,0.14,,2013-01-12 04:02:00,
2013-01-11 23:12:00,52.0,51.0,30.10,West,278,4.0,12.0,97,0.03,,,0.14,,2013-01-12 04:12:00,
2013-01-11 23:22:00,51.0,50.0,30.09,West,264,2.0,6.0,97,0.00,,,0.14,,2013-01-12 04:22:00,
2013-01-11 23:32:00,51.0,50.0,30.09,West,264,2.0,6.0,97,0.00,,,0.14,,2013-01-12 04:32:00,
2013-01-11 23:43:00,51.0,50.0,30.09,West,264,2.0,6.0,97,0.00,,,0.14,,2013-01-12 04:43:00,
2013-01-11 23:52:00,50.0,49.0,30.09,NNW,328,1.0,6.0,97,0.00,,,0.14,,2013-01-12 04:52:00,